Regional Weather Roundup
Issued by NWS

Home | Current Version | Previous Version | Text Only | Print | Product List | Glossary On
Versions: 1 2 3 4 5 6 7 8 9 10 11 12 13 14 15 16 17 18 19 20 21 22 23 24 25 26 27 28 29 30 31 32 33 34 35 36 37 38 39 40 41 42 43 44 45 46 47 48 49 50
000
ASCA42 TJSJ 270711
RWRPR
PUERTO RICO/U.S. VIRGIN ISLANDS HOURLY WEATHER ROUNDUP
NATIONAL WEATHER SERVICE SAN JUAN PR
300 AM AST SAT DEC 27 2014

PRZ001-004-270800-
PUERTO RICO

CITY           SKY/WX    TMP DP  RH WIND       PRES   REMARKS
SAN JUAN LMM   PTCLDY    77  68  73 NE10      30.04F
PONCE          CLEAR     66  64  94 CALM      30.00
AGUADILLA      PTCLDY    72  68  88 E7        30.05F
CEIBA          PTCLDY    77  66  69 NE13      30.05F
$$

PRZ006-007-270800-
U.S. VIRGIN ISLANDS

CITY           SKY/WX    TMP DP  RH WIND       PRES   REMARKS
$$

HOURLY WEATHER ROUNDUP FOR THE NEWS MEDIA

CITY           SKY/WX    TMP DP  RH WIND       PRES   REMARKS
MIAMI          PTCLDY    70  69  97 CALM      30.15F
ORLANDO        CLOUDY    65  60  84 N3        30.21S
NEW YORK       PTCLDY    38  30  73 SW5       30.22S WCI  34
NEWARK         PTCLDY    36  29  75 SW6       30.22R WCI  31
CHICAGO        CLOUDY    46  42  86 S9        30.00F
HARTFORD       CLEAR     30  29  96 W3        30.14R
BOSTON         CLEAR     40  29  64 W8        30.14R WCI  34
DALLAS         MOCLDY    62  61  96 SE7       29.98S
PHILADELPHIA   MOCLDY    36  31  82 W5        30.25R WCI  32


USA.gov is the U.S. government's official web portal to all federal, state and local government web resources and services.